Kalamazoo, MI

7:43 PM EST on December 04, 2016 (GMT -0500)
Kalamazoo-Battle Creek International

Weather History for KAZO - April, 2014

Change the Weather History Date:

Tuesday, April 29, 2014

  Actual Average Record
Temperature  
Mean Temperature 62 °F 54 °F  
Max Temperature 74 °F 65 °F 82 °F (1951)
Min Temperature 49 °F 43 °F 28 °F (1979)
Degree Days  
Heating Degree Days 3 11  
Month to date heating degree days 488 474  
Since 1 July heating degree days 6815 6131  
Cooling Degree Days 0 0  
Month to date cooling degree days 0 0  
Year to date cooling degree days 0 0  
Growing Degree Days 10 (Base 50)    
Moisture  
Dew Point 47 °F    
Average Humidity 61    
Maximum Humidity 93    
Minimum Humidity 29    
Precipitation  
Precipitation 0.17 in 0.14 in 1.17 in (1956)
Month to date precipitation 2.00 2.93  
Year to date precipitation 5.78 8.42  
Sea Level Pressure  
Sea Level Pressure 29.59 in    
Wind  
Wind Speed 10 mph (SSE)    
Max Wind Speed 33 mph    
Max Gust Speed 36 mph    
Visibility 7 miles    
Events Rain , Thunderstorm    
T = Trace of Precipitation, MM = Missing Value Source: NWS Daily Summary

Daily Weather History Graph

Daily Weather History Graph

Search for Another Location

Airport or City:

Trip Planner

Search our weather history database for the weather conditions in past years. The results will help you decide how hot, cold, wet, or windy it might be!

Date:

Astronomy

Apr. 29, 2014 Rise Set
Actual Time 6:40 AM EDT 8:39 PM EDT
Civil Twilight 6:10 AM EDT 9:09 PM EDT
Nautical Twilight 5:32 AM EDT 9:47 PM EDT
Astronomical Twilight 4:52 AM EDT 10:27 PM EDT
Moon 6:58 AM EDT (4/29) 9:19 PM EDT (4/29)
Length of Visible Light 14h 59m
Length of Day
13h 58m
New Moon, 0% of the Moon is Illuminated
Apr 29
New Moon
May 6
First Quarter
May 14
Full
May 21
Last Quarter
May 28
New

Hourly Weather History & Observations

Time (EDT) Temp. Dew Point Humidity Pressure Visibility Wind Dir Wind Speed Gust Speed Precip Events Conditions
12:53 AM 48.9 °F 43.0 °F 80% 29.67 in 10.0 mi East 11.5 mph - 0.03 in   Overcast
1:20 AM 48.9 °F 43.0 °F 80% 29.65 in 10.0 mi ESE 11.5 mph - N/A   Overcast
1:53 AM 48.9 °F 43.0 °F 80% 29.65 in 10.0 mi East 10.4 mph - N/A   Overcast
2:53 AM 48.9 °F 44.1 °F 83% 29.61 in 10.0 mi East 10.4 mph - N/A   Overcast
3:51 AM 48.2 °F 44.6 °F 87% 29.57 in 6.0 mi ESE 10.4 mph 18.4 mph 0.03 in Rain Rain
3:53 AM 48.9 °F 45.0 °F 86% 29.58 in 6.0 mi ESE 9.2 mph 18.4 mph 0.03 in Rain Light Rain
4:53 AM 48.9 °F 46.9 °F 93% 29.55 in 5.0 mi ESE 8.1 mph - 0.03 in Rain Light Rain
5:53 AM 50.0 °F 48.0 °F 93% 29.55 in 7.0 mi ESE 3.5 mph - 0.02 in   Overcast
6:36 AM 50.0 °F 48.0 °F 93% 29.55 in 1.5 mi SW 4.6 mph - 0.01 in Rain Light Rain
6:53 AM 50.0 °F 48.0 °F 93% 29.54 in 1.5 mi SE 4.6 mph - 0.03 in Rain Light Rain
7:53 AM 51.1 °F 48.9 °F 92% 29.52 in 1.5 mi SE 4.6 mph - 0.06 in   Overcast
7:56 AM 51.1 °F 48.9 °F 92% 29.52 in 1.5 mi ESE 3.5 mph - N/A   Mostly Cloudy
8:04 AM 51.1 °F 48.9 °F 92% 29.52 in 1.5 mi ESE 3.5 mph - N/A   Overcast
8:53 AM 53.6 °F 50.0 °F 88% 29.53 in 1.5 mi South 4.6 mph - N/A   Mostly Cloudy
9:00 AM 53.1 °F 51.1 °F 93% 29.53 in 4.0 mi SSE 5.8 mph - N/A   Overcast
9:07 AM 53.1 °F 51.1 °F 93% 29.53 in 4.0 mi South 5.8 mph - N/A   Overcast
9:53 AM 54.0 °F 52.0 °F 93% 29.55 in 4.0 mi South 6.9 mph - N/A   Overcast
10:53 AM 55.9 °F 52.0 °F 87% 29.56 in 10.0 mi South 5.8 mph - N/A   Mostly Cloudy
11:40 AM 61.0 °F 54.0 °F 78% 29.56 in 10.0 mi South 8.1 mph - N/A   Partly Cloudy
11:53 AM 62.1 °F 54.0 °F 75% 29.57 in 10.0 mi SSE 9.2 mph - N/A   Partly Cloudy
12:53 PM 68.0 °F 52.0 °F 56% 29.57 in 10.0 mi South 10.4 mph - N/A   Partly Cloudy
1:53 PM 72.0 °F 45.0 °F 38% 29.55 in 10.0 mi South 18.4 mph 23.0 mph N/A   Partly Cloudy
2:53 PM 73.9 °F 43.0 °F 33% 29.54 in 10.0 mi South 20.7 mph 28.8 mph N/A   Partly Cloudy
3:53 PM 73.0 °F 39.9 °F 30% 29.54 in 10.0 mi South 28.8 mph 35.7 mph N/A   Scattered Clouds
4:53 PM 71.1 °F 43.0 °F 36% 29.55 in 10.0 mi South 21.9 mph 33.4 mph 0.00 in Thunderstorm Mostly Cloudy
5:53 PM 71.6 °F 37.4 °F 29% 29.59 in 10.0 mi SSW 20.7 mph 31.1 mph N/A   Mostly Cloudy
6:53 PM 64.0 °F 46.9 °F 54% 29.64 in 10.0 mi NW 9.2 mph - 0.00 in   Mostly Cloudy
7:53 PM 61.0 °F 46.0 °F 58% 29.68 in 10.0 mi NW 5.8 mph - N/A   Scattered Clouds
8:53 PM 59.0 °F 46.9 °F 64% 29.73 in 10.0 mi SSW 8.1 mph - 0.00 in Rain Light Rain
9:53 PM 60.1 °F 46.0 °F 60% 29.72 in 10.0 mi SSE 5.8 mph - 0.00 in   Overcast
10:53 PM 57.2 °F 44.6 °F 63% 29.71 in 10.0 mi SSE 5.8 mph - N/A   Scattered Clouds
11:53 PM 55.0 °F 45.0 °F 69% 29.70 in 10.0 mi SE 3.5 mph - N/A   Clear